<?xml version="1.0" encoding="UTF-8" standalone="no" ?>
<gpx xmlns="http://www.topografix.com/GPX/1/1" xmlns:xsi="http://www.w3.org/2001/XMLSchema-instance" xsi:schemaLocation="http://www.topografix.com/GPX/1/1 http://www.topografix.com/GPX/1/1/gpx.xsd" version="1.1" creator="VisuGPX - https://www.visugpx.com">
  <metadata>
    <name>83-M-Signes-reco Grand Cap</name>
    <desc><![CDATA[Siou Blanc, Jounces, Grand Cap, Pyramide de Cassini, Tourris Nord, GR99]]></desc>
  </metadata>
  <trk>
    <name><![CDATA[Siou Blanc Grand Cap Pyramide de Cassidi 15 KM +740M D450M DS4 D6H on AllTrails]]></name>
    <trkseg>
      <trkpt lat="43.22722" lon="5.92103">
        <ele>629</ele>
        <time>2026-01-07T09:43:57Z</time>
      </trkpt>
      <trkpt lat="43.22765" lon="5.9211">
        <ele>630</ele>
        <time>2026-01-23T01:15:32Z</time>
      </trkpt>
      <trkpt lat="43.22829" lon="5.92085">
        <ele>629</ele>
        <time>2026-01-23T01:15:32Z</time>
      </trkpt>
      <trkpt lat="43.2294" lon="5.92107">
        <ele>628</ele>
        <time>2026-01-23T01:15:32Z</time>
      </trkpt>
      <trkpt lat="43.22968" lon="5.92129">
        <ele>628</ele>
        <time>2026-01-23T01:15:32Z</time>
      </trkpt>
      <trkpt lat="43.2298" lon="5.92149">
        <ele>627</ele>
        <time>2026-01-23T01:15:32Z</time>
      </trkpt>
      <trkpt lat="43.23005" lon="5.92149">
        <ele>623</ele>
        <time>2026-01-23T01:15:32Z</time>
      </trkpt>
      <trkpt lat="43.23034" lon="5.92116">
        <ele>621</ele>
        <time>2026-01-23T01:15:32Z</time>
      </trkpt>
      <trkpt lat="43.23068" lon="5.92087">
        <ele>620</ele>
        <time>2026-01-23T01:15:32Z</time>
      </trkpt>
      <trkpt lat="43.23107" lon="5.92096">
        <ele>619</ele>
        <time>2026-01-23T01:15:32Z</time>
      </trkpt>
      <trkpt lat="43.23176" lon="5.92081">
        <ele>616</ele>
        <time>2026-01-23T01:15:32Z</time>
      </trkpt>
      <trkpt lat="43.23271" lon="5.92082">
        <ele>618</ele>
        <time>2026-01-23T01:15:32Z</time>
      </trkpt>
      <trkpt lat="43.23321" lon="5.92108">
        <ele>616</ele>
        <time>2026-01-23T01:15:32Z</time>
      </trkpt>
      <trkpt lat="43.23354" lon="5.921">
        <ele>614</ele>
        <time>2026-01-23T01:15:32Z</time>
      </trkpt>
      <trkpt lat="43.23418" lon="5.92143">
        <ele>611</ele>
        <time>2026-01-23T01:15:32Z</time>
      </trkpt>
      <trkpt lat="43.23425" lon="5.92197">
        <ele>609</ele>
        <time>2026-01-23T01:15:32Z</time>
      </trkpt>
      <trkpt lat="43.23461" lon="5.92232">
        <ele>609</ele>
        <time>2026-01-23T01:15:32Z</time>
      </trkpt>
      <trkpt lat="43.23513" lon="5.92219">
        <ele>610</ele>
        <time>2026-01-23T01:15:32Z</time>
      </trkpt>
      <trkpt lat="43.23548" lon="5.92277">
        <ele>607</ele>
        <time>2026-01-23T01:15:32Z</time>
      </trkpt>
      <trkpt lat="43.23495" lon="5.92424">
        <ele>606</ele>
        <time>2026-01-23T01:15:32Z</time>
      </trkpt>
      <trkpt lat="43.23494" lon="5.92476">
        <ele>606</ele>
        <time>2026-01-23T01:15:32Z</time>
      </trkpt>
      <trkpt lat="43.23521" lon="5.92498">
        <ele>606</ele>
        <time>2026-01-23T01:15:32Z</time>
      </trkpt>
      <trkpt lat="43.23539" lon="5.9258">
        <ele>605</ele>
        <time>2026-01-23T01:15:32Z</time>
      </trkpt>
      <trkpt lat="43.2354" lon="5.92634">
        <ele>606</ele>
        <time>2026-01-23T01:15:32Z</time>
      </trkpt>
      <trkpt lat="43.23558" lon="5.9268">
        <ele>605</ele>
        <time>2026-01-23T01:15:32Z</time>
      </trkpt>
      <trkpt lat="43.23577" lon="5.92689">
        <ele>606</ele>
        <time>2026-01-23T01:15:32Z</time>
      </trkpt>
      <trkpt lat="43.23576" lon="5.92719">
        <ele>604</ele>
        <time>2026-01-23T01:15:32Z</time>
      </trkpt>
      <trkpt lat="43.23497" lon="5.92849">
        <ele>600</ele>
        <time>2026-01-23T01:15:32Z</time>
      </trkpt>
      <trkpt lat="43.23472" lon="5.92885">
        <ele>602</ele>
        <time>2026-01-23T01:15:32Z</time>
      </trkpt>
      <trkpt lat="43.23498" lon="5.92943">
        <ele>607</ele>
        <time>2026-01-23T01:15:32Z</time>
      </trkpt>
      <trkpt lat="43.23517" lon="5.9298">
        <ele>612</ele>
        <time>2026-01-23T01:15:32Z</time>
      </trkpt>
      <trkpt lat="43.23558" lon="5.93001">
        <ele>611</ele>
        <time>2026-01-23T01:15:32Z</time>
      </trkpt>
      <trkpt lat="43.23614" lon="5.93062">
        <ele>614</ele>
        <time>2026-01-23T01:15:32Z</time>
      </trkpt>
      <trkpt lat="43.23643" lon="5.93108">
        <ele>619</ele>
        <time>2026-01-23T01:15:32Z</time>
      </trkpt>
      <trkpt lat="43.23683" lon="5.93152">
        <ele>622</ele>
        <time>2026-01-23T01:15:32Z</time>
      </trkpt>
      <trkpt lat="43.23711" lon="5.93228">
        <ele>621</ele>
        <time>2026-01-23T01:15:32Z</time>
      </trkpt>
      <trkpt lat="43.23722" lon="5.93293">
        <ele>619</ele>
        <time>2026-01-23T01:15:32Z</time>
      </trkpt>
      <trkpt lat="43.23724" lon="5.93409">
        <ele>621</ele>
        <time>2026-01-23T01:15:32Z</time>
      </trkpt>
      <trkpt lat="43.2368" lon="5.93494">
        <ele>624</ele>
        <time>2026-01-23T01:15:32Z</time>
      </trkpt>
      <trkpt lat="43.23653" lon="5.93575">
        <ele>624</ele>
        <time>2026-01-23T01:15:32Z</time>
      </trkpt>
      <trkpt lat="43.23656" lon="5.93628">
        <ele>624</ele>
        <time>2026-01-23T01:15:32Z</time>
      </trkpt>
      <trkpt lat="43.23662" lon="5.93661">
        <ele>624</ele>
        <time>2026-01-23T01:15:32Z</time>
      </trkpt>
      <trkpt lat="43.23689" lon="5.93678">
        <ele>624</ele>
        <time>2026-01-23T01:15:32Z</time>
      </trkpt>
      <trkpt lat="43.23696" lon="5.93723">
        <ele>626</ele>
        <time>2026-01-23T01:15:32Z</time>
      </trkpt>
      <trkpt lat="43.23731" lon="5.93768">
        <ele>630</ele>
        <time>2026-01-23T01:15:32Z</time>
      </trkpt>
      <trkpt lat="43.23762" lon="5.9379">
        <ele>630</ele>
        <time>2026-01-23T01:15:32Z</time>
      </trkpt>
      <trkpt lat="43.2384" lon="5.93788">
        <ele>631</ele>
        <time>2026-01-23T01:15:32Z</time>
      </trkpt>
      <trkpt lat="43.23862" lon="5.93818">
        <ele>632</ele>
        <time>2026-01-23T01:15:32Z</time>
      </trkpt>
      <trkpt lat="43.23744" lon="5.93889">
        <ele>636</ele>
        <time>2026-01-23T01:15:32Z</time>
      </trkpt>
      <trkpt lat="43.23716" lon="5.93914">
        <ele>636</ele>
        <time>2026-01-23T01:15:32Z</time>
      </trkpt>
      <trkpt lat="43.23695" lon="5.93959">
        <ele>637</ele>
        <time>2026-01-23T01:15:32Z</time>
      </trkpt>
      <trkpt lat="43.23671" lon="5.9395">
        <ele>637</ele>
        <time>2026-01-23T01:15:32Z</time>
      </trkpt>
      <trkpt lat="43.23657" lon="5.93927">
        <ele>636</ele>
        <time>2026-01-23T01:15:32Z</time>
      </trkpt>
      <trkpt lat="43.23655" lon="5.93882">
        <ele>635</ele>
        <time>2026-01-23T01:15:32Z</time>
      </trkpt>
      <trkpt lat="43.23624" lon="5.93845">
        <ele>635</ele>
        <time>2026-01-23T01:15:32Z</time>
      </trkpt>
      <trkpt lat="43.23596" lon="5.93852">
        <ele>636</ele>
        <time>2026-01-23T01:15:32Z</time>
      </trkpt>
      <trkpt lat="43.2358" lon="5.93832">
        <ele>636</ele>
        <time>2026-01-23T01:15:32Z</time>
      </trkpt>
      <trkpt lat="43.23542" lon="5.93813">
        <ele>637</ele>
        <time>2026-01-23T01:15:32Z</time>
      </trkpt>
      <trkpt lat="43.23513" lon="5.93825">
        <ele>639</ele>
        <time>2026-01-23T01:15:32Z</time>
      </trkpt>
      <trkpt lat="43.23478" lon="5.93836">
        <ele>644</ele>
        <time>2026-01-23T01:15:32Z</time>
      </trkpt>
      <trkpt lat="43.23415" lon="5.93865">
        <ele>645</ele>
        <time>2026-01-23T01:15:32Z</time>
      </trkpt>
      <trkpt lat="43.23392" lon="5.93875">
        <ele>644</ele>
        <time>2026-01-23T01:15:32Z</time>
      </trkpt>
      <trkpt lat="43.23355" lon="5.93879">
        <ele>641</ele>
        <time>2026-01-23T01:15:32Z</time>
      </trkpt>
      <trkpt lat="43.2331" lon="5.93899">
        <ele>634</ele>
        <time>2026-01-23T01:15:32Z</time>
      </trkpt>
      <trkpt lat="43.23279" lon="5.93911">
        <ele>630</ele>
        <time>2026-01-23T01:15:32Z</time>
      </trkpt>
      <trkpt lat="43.23243" lon="5.93913">
        <ele>629</ele>
        <time>2026-01-23T01:15:32Z</time>
      </trkpt>
      <trkpt lat="43.23226" lon="5.93869">
        <ele>624</ele>
        <time>2026-01-23T01:15:32Z</time>
      </trkpt>
      <trkpt lat="43.23226" lon="5.93853">
        <ele>623</ele>
        <time>2026-01-23T01:15:32Z</time>
      </trkpt>
      <trkpt lat="43.23183" lon="5.93822">
        <ele>619</ele>
        <time>2026-01-23T01:15:32Z</time>
      </trkpt>
      <trkpt lat="43.23132" lon="5.93824">
        <ele>615</ele>
        <time>2026-01-23T01:15:32Z</time>
      </trkpt>
      <trkpt lat="43.23101" lon="5.93814">
        <ele>615</ele>
        <time>2026-01-23T01:15:32Z</time>
      </trkpt>
      <trkpt lat="43.23077" lon="5.93837">
        <ele>615</ele>
        <time>2026-01-23T01:15:32Z</time>
      </trkpt>
      <trkpt lat="43.23044" lon="5.93854">
        <ele>615</ele>
        <time>2026-01-23T01:15:32Z</time>
      </trkpt>
      <trkpt lat="43.23047" lon="5.9392">
        <ele>612</ele>
        <time>2026-01-23T01:15:32Z</time>
      </trkpt>
      <trkpt lat="43.2302" lon="5.94">
        <ele>611</ele>
        <time>2026-01-23T01:15:32Z</time>
      </trkpt>
      <trkpt lat="43.23019" lon="5.94055">
        <ele>611</ele>
        <time>2026-01-23T01:15:32Z</time>
      </trkpt>
      <trkpt lat="43.23006" lon="5.94069">
        <ele>612</ele>
        <time>2026-01-23T01:15:32Z</time>
      </trkpt>
      <trkpt lat="43.22978" lon="5.94161">
        <ele>615</ele>
        <time>2026-01-23T01:15:32Z</time>
      </trkpt>
      <trkpt lat="43.22916" lon="5.94228">
        <ele>618</ele>
        <time>2026-01-23T01:15:32Z</time>
      </trkpt>
      <trkpt lat="43.22855" lon="5.94359">
        <ele>617</ele>
        <time>2026-01-23T01:15:32Z</time>
      </trkpt>
      <trkpt lat="43.22785" lon="5.94431">
        <ele>617</ele>
        <time>2026-01-23T01:15:32Z</time>
      </trkpt>
      <trkpt lat="43.22654" lon="5.94474">
        <ele>620</ele>
        <time>2026-01-23T01:15:32Z</time>
      </trkpt>
      <trkpt lat="43.2266" lon="5.94556">
        <ele>617</ele>
        <time>2026-01-23T01:15:32Z</time>
      </trkpt>
      <trkpt lat="43.22605" lon="5.94597">
        <ele>617</ele>
        <time>2026-01-23T01:15:32Z</time>
      </trkpt>
      <trkpt lat="43.22495" lon="5.94721">
        <ele>615</ele>
        <time>2026-01-23T01:15:32Z</time>
      </trkpt>
      <trkpt lat="43.22504" lon="5.94795">
        <ele>614</ele>
        <time>2026-01-23T01:15:32Z</time>
      </trkpt>
      <trkpt lat="43.22414" lon="5.9488">
        <ele>620</ele>
        <time>2026-01-23T01:15:32Z</time>
      </trkpt>
      <trkpt lat="43.22357" lon="5.94959">
        <ele>619</ele>
        <time>2026-01-23T01:15:32Z</time>
      </trkpt>
      <trkpt lat="43.22284" lon="5.95035">
        <ele>619</ele>
        <time>2026-01-23T01:15:32Z</time>
      </trkpt>
      <trkpt lat="43.22084" lon="5.95161">
        <ele>612</ele>
        <time>2026-01-23T01:15:32Z</time>
      </trkpt>
      <trkpt lat="43.22045" lon="5.95188">
        <ele>613</ele>
        <time>2026-01-23T01:15:32Z</time>
      </trkpt>
      <trkpt lat="43.219" lon="5.95233">
        <ele>612</ele>
        <time>2026-01-23T01:15:32Z</time>
      </trkpt>
      <trkpt lat="43.21887" lon="5.95287">
        <ele>611</ele>
        <time>2026-01-23T01:15:32Z</time>
      </trkpt>
      <trkpt lat="43.21842" lon="5.95306">
        <ele>609</ele>
        <time>2026-01-23T01:15:32Z</time>
      </trkpt>
      <trkpt lat="43.21812" lon="5.95359">
        <ele>607</ele>
        <time>2026-01-23T01:15:32Z</time>
      </trkpt>
      <trkpt lat="43.21648" lon="5.95492">
        <ele>597</ele>
        <time>2026-01-23T01:15:32Z</time>
      </trkpt>
      <trkpt lat="43.21554" lon="5.95598">
        <ele>590</ele>
        <time>2026-01-23T01:15:32Z</time>
      </trkpt>
      <trkpt lat="43.21405" lon="5.95668">
        <ele>589</ele>
        <time>2026-01-23T01:15:32Z</time>
      </trkpt>
      <trkpt lat="43.21133" lon="5.95704">
        <ele>605</ele>
        <time>2026-01-23T01:15:32Z</time>
      </trkpt>
      <trkpt lat="43.211" lon="5.95662">
        <ele>613</ele>
        <time>2026-01-23T01:15:32Z</time>
      </trkpt>
      <trkpt lat="43.21086" lon="5.95688">
        <ele>611</ele>
        <time>2026-01-23T01:15:32Z</time>
      </trkpt>
      <trkpt lat="43.21054" lon="5.95687">
        <ele>617</ele>
        <time>2026-01-23T01:15:32Z</time>
      </trkpt>
      <trkpt lat="43.21004" lon="5.9564">
        <ele>632</ele>
        <time>2026-01-23T01:15:32Z</time>
      </trkpt>
      <trkpt lat="43.20962" lon="5.95638">
        <ele>644</ele>
        <time>2026-01-23T01:15:32Z</time>
      </trkpt>
      <trkpt lat="43.20943" lon="5.95667">
        <ele>644</ele>
        <time>2026-01-23T01:15:32Z</time>
      </trkpt>
      <trkpt lat="43.20918" lon="5.95661">
        <ele>648</ele>
        <time>2026-01-23T01:15:32Z</time>
      </trkpt>
      <trkpt lat="43.20905" lon="5.95623">
        <ele>655</ele>
        <time>2026-01-23T01:15:32Z</time>
      </trkpt>
      <trkpt lat="43.20869" lon="5.95595">
        <ele>663</ele>
        <time>2026-01-23T01:15:32Z</time>
      </trkpt>
      <trkpt lat="43.20844" lon="5.95565">
        <ele>669</ele>
        <time>2026-01-23T01:15:32Z</time>
      </trkpt>
      <trkpt lat="43.20798" lon="5.95572">
        <ele>680</ele>
        <time>2026-01-23T01:15:32Z</time>
      </trkpt>
      <trkpt lat="43.2076" lon="5.9551">
        <ele>706</ele>
        <time>2026-01-23T01:15:32Z</time>
      </trkpt>
      <trkpt lat="43.2072" lon="5.95549">
        <ele>714</ele>
        <time>2026-01-23T01:15:32Z</time>
      </trkpt>
      <trkpt lat="43.20687" lon="5.95594">
        <ele>722</ele>
        <time>2026-01-23T01:15:32Z</time>
      </trkpt>
      <trkpt lat="43.20655" lon="5.95544">
        <ele>749</ele>
        <time>2026-01-23T01:15:32Z</time>
      </trkpt>
      <trkpt lat="43.20634" lon="5.95441">
        <ele>767</ele>
        <time>2026-01-23T01:15:32Z</time>
      </trkpt>
      <trkpt lat="43.20601" lon="5.95397">
        <ele>774</ele>
        <time>2026-01-23T01:15:32Z</time>
      </trkpt>
      <trkpt lat="43.20573" lon="5.95368">
        <ele>775</ele>
        <time>2026-01-23T01:15:32Z</time>
      </trkpt>
      <trkpt lat="43.20546" lon="5.95357">
        <ele>776</ele>
        <time>2026-01-23T01:15:32Z</time>
      </trkpt>
      <trkpt lat="43.20523" lon="5.95334">
        <ele>778</ele>
        <time>2026-01-23T01:15:32Z</time>
      </trkpt>
      <trkpt lat="43.20523" lon="5.95311">
        <ele>777</ele>
        <time>2026-01-23T01:15:32Z</time>
      </trkpt>
      <trkpt lat="43.20491" lon="5.95301">
        <ele>779</ele>
        <time>2026-01-23T01:15:32Z</time>
      </trkpt>
      <trkpt lat="43.2048" lon="5.95329">
        <ele>780</ele>
        <time>2026-01-23T01:15:32Z</time>
      </trkpt>
      <trkpt lat="43.2042" lon="5.953">
        <ele>777</ele>
        <time>2026-01-23T01:15:32Z</time>
      </trkpt>
      <trkpt lat="43.2038" lon="5.95269">
        <ele>769</ele>
        <time>2026-01-23T01:15:32Z</time>
      </trkpt>
      <trkpt lat="43.20366" lon="5.95252">
        <ele>766</ele>
        <time>2026-01-23T01:15:32Z</time>
      </trkpt>
      <trkpt lat="43.20347" lon="5.95228">
        <ele>761</ele>
        <time>2026-01-23T01:15:32Z</time>
      </trkpt>
      <trkpt lat="43.20344" lon="5.95201">
        <ele>758</ele>
        <time>2026-01-23T01:15:32Z</time>
      </trkpt>
      <trkpt lat="43.20325" lon="5.95193">
        <ele>754</ele>
        <time>2026-01-23T01:15:32Z</time>
      </trkpt>
      <trkpt lat="43.20284" lon="5.95225">
        <ele>750</ele>
        <time>2026-01-23T01:15:32Z</time>
      </trkpt>
      <trkpt lat="43.20262" lon="5.95215">
        <ele>744</ele>
        <time>2026-01-23T01:15:32Z</time>
      </trkpt>
      <trkpt lat="43.20207" lon="5.9516">
        <ele>727</ele>
        <time>2026-01-23T01:15:32Z</time>
      </trkpt>
      <trkpt lat="43.20187" lon="5.95178">
        <ele>722</ele>
        <time>2026-01-23T01:15:32Z</time>
      </trkpt>
      <trkpt lat="43.20129" lon="5.95135">
        <ele>712</ele>
        <time>2026-01-23T01:15:32Z</time>
      </trkpt>
      <trkpt lat="43.20081" lon="5.95092">
        <ele>700</ele>
        <time>2026-01-23T01:15:32Z</time>
      </trkpt>
      <trkpt lat="43.20063" lon="5.95073">
        <ele>697</ele>
        <time>2026-01-23T01:15:32Z</time>
      </trkpt>
      <trkpt lat="43.20038" lon="5.95065">
        <ele>692</ele>
        <time>2026-01-23T01:15:32Z</time>
      </trkpt>
      <trkpt lat="43.20003" lon="5.95025">
        <ele>683</ele>
        <time>2026-01-23T01:15:32Z</time>
      </trkpt>
      <trkpt lat="43.19936" lon="5.95039">
        <ele>674</ele>
        <time>2026-01-23T01:15:32Z</time>
      </trkpt>
      <trkpt lat="43.19916" lon="5.94995">
        <ele>668</ele>
        <time>2026-01-23T01:15:32Z</time>
      </trkpt>
      <trkpt lat="43.19888" lon="5.94964">
        <ele>663</ele>
        <time>2026-01-23T01:15:32Z</time>
      </trkpt>
      <trkpt lat="43.19889" lon="5.94876">
        <ele>663</ele>
        <time>2026-01-23T01:15:32Z</time>
      </trkpt>
      <trkpt lat="43.19863" lon="5.94868">
        <ele>660</ele>
        <time>2026-01-23T01:15:32Z</time>
      </trkpt>
      <trkpt lat="43.19825" lon="5.94889">
        <ele>657</ele>
        <time>2026-01-23T01:15:32Z</time>
      </trkpt>
      <trkpt lat="43.19805" lon="5.94905">
        <ele>654</ele>
        <time>2026-01-23T01:15:32Z</time>
      </trkpt>
      <trkpt lat="43.19785" lon="5.94891">
        <ele>649</ele>
        <time>2026-01-23T01:15:32Z</time>
      </trkpt>
      <trkpt lat="43.19757" lon="5.94897">
        <ele>642</ele>
        <time>2026-01-23T01:15:32Z</time>
      </trkpt>
      <trkpt lat="43.19758" lon="5.94825">
        <ele>643</ele>
        <time>2026-01-23T01:15:32Z</time>
      </trkpt>
      <trkpt lat="43.19742" lon="5.94791">
        <ele>642</ele>
        <time>2026-01-23T01:15:32Z</time>
      </trkpt>
      <trkpt lat="43.19722" lon="5.94794">
        <ele>640</ele>
        <time>2026-01-23T01:15:32Z</time>
      </trkpt>
      <trkpt lat="43.19707" lon="5.9477">
        <ele>639</ele>
        <time>2026-01-23T01:15:32Z</time>
      </trkpt>
      <trkpt lat="43.19697" lon="5.94688">
        <ele>636</ele>
        <time>2026-01-23T01:15:32Z</time>
      </trkpt>
      <trkpt lat="43.19687" lon="5.94674">
        <ele>634</ele>
        <time>2026-01-23T01:15:32Z</time>
      </trkpt>
      <trkpt lat="43.19692" lon="5.94642">
        <ele>633</ele>
        <time>2026-01-23T01:15:32Z</time>
      </trkpt>
      <trkpt lat="43.19663" lon="5.94628">
        <ele>627</ele>
        <time>2026-01-23T01:15:32Z</time>
      </trkpt>
      <trkpt lat="43.19625" lon="5.94612">
        <ele>618</ele>
        <time>2026-01-23T01:15:32Z</time>
      </trkpt>
      <trkpt lat="43.19614" lon="5.94579">
        <ele>614</ele>
        <time>2026-01-23T01:15:32Z</time>
      </trkpt>
      <trkpt lat="43.1962" lon="5.94511">
        <ele>607</ele>
        <time>2026-01-23T01:15:32Z</time>
      </trkpt>
      <trkpt lat="43.19614" lon="5.94469">
        <ele>602</ele>
        <time>2026-01-23T01:15:32Z</time>
      </trkpt>
      <trkpt lat="43.19615" lon="5.94433">
        <ele>601</ele>
        <time>2026-01-23T01:15:32Z</time>
      </trkpt>
      <trkpt lat="43.19558" lon="5.94462">
        <ele>591</ele>
        <time>2026-01-23T01:15:32Z</time>
      </trkpt>
      <trkpt lat="43.19525" lon="5.94457">
        <ele>586</ele>
        <time>2026-01-23T01:15:32Z</time>
      </trkpt>
      <trkpt lat="43.19507" lon="5.94469">
        <ele>584</ele>
        <time>2026-01-23T01:15:32Z</time>
      </trkpt>
      <trkpt lat="43.19489" lon="5.94463">
        <ele>580</ele>
        <time>2026-01-23T01:15:32Z</time>
      </trkpt>
      <trkpt lat="43.19448" lon="5.94483">
        <ele>575</ele>
        <time>2026-01-23T01:15:32Z</time>
      </trkpt>
      <trkpt lat="43.19437" lon="5.94468">
        <ele>572</ele>
        <time>2026-01-23T01:15:32Z</time>
      </trkpt>
      <trkpt lat="43.19366" lon="5.9448">
        <ele>566</ele>
        <time>2026-01-23T01:15:32Z</time>
      </trkpt>
      <trkpt lat="43.19346" lon="5.9444">
        <ele>562</ele>
        <time>2026-01-23T01:15:32Z</time>
      </trkpt>
      <trkpt lat="43.1933" lon="5.94406">
        <ele>557</ele>
        <time>2026-01-23T01:15:32Z</time>
      </trkpt>
      <trkpt lat="43.19336" lon="5.94356">
        <ele>555</ele>
        <time>2026-01-23T01:15:32Z</time>
      </trkpt>
      <trkpt lat="43.19335" lon="5.94311">
        <ele>550</ele>
        <time>2026-01-23T01:15:32Z</time>
      </trkpt>
      <trkpt lat="43.19346" lon="5.94276">
        <ele>547</ele>
        <time>2026-01-23T01:15:32Z</time>
      </trkpt>
      <trkpt lat="43.193" lon="5.94212">
        <ele>536</ele>
        <time>2026-01-23T01:15:32Z</time>
      </trkpt>
      <trkpt lat="43.19262" lon="5.94202">
        <ele>527</ele>
        <time>2026-01-23T01:15:32Z</time>
      </trkpt>
      <trkpt lat="43.1924" lon="5.94174">
        <ele>520</ele>
        <time>2026-01-23T01:15:32Z</time>
      </trkpt>
      <trkpt lat="43.19219" lon="5.94174">
        <ele>516</ele>
        <time>2026-01-23T01:15:32Z</time>
      </trkpt>
      <trkpt lat="43.19215" lon="5.94141">
        <ele>518</ele>
        <time>2026-01-23T01:15:32Z</time>
      </trkpt>
      <trkpt lat="43.19184" lon="5.94152">
        <ele>515</ele>
        <time>2026-01-23T01:15:32Z</time>
      </trkpt>
      <trkpt lat="43.19145" lon="5.94146">
        <ele>511</ele>
        <time>2026-01-23T01:15:32Z</time>
      </trkpt>
      <trkpt lat="43.19122" lon="5.94118">
        <ele>513</ele>
        <time>2026-01-23T01:15:32Z</time>
      </trkpt>
      <trkpt lat="43.19169" lon="5.94068">
        <ele>521</ele>
        <time>2026-01-23T01:15:32Z</time>
      </trkpt>
      <trkpt lat="43.19196" lon="5.94066">
        <ele>525</ele>
        <time>2026-01-23T01:15:32Z</time>
      </trkpt>
      <trkpt lat="43.19222" lon="5.94003">
        <ele>531</ele>
        <time>2026-01-23T01:15:32Z</time>
      </trkpt>
      <trkpt lat="43.19259" lon="5.9395">
        <ele>535</ele>
        <time>2026-01-23T01:15:32Z</time>
      </trkpt>
      <trkpt lat="43.19295" lon="5.93861">
        <ele>541</ele>
        <time>2026-01-23T01:15:32Z</time>
      </trkpt>
      <trkpt lat="43.19338" lon="5.93867">
        <ele>549</ele>
        <time>2026-01-23T01:15:32Z</time>
      </trkpt>
      <trkpt lat="43.19373" lon="5.93887">
        <ele>554</ele>
        <time>2026-01-23T01:15:32Z</time>
      </trkpt>
      <trkpt lat="43.1941" lon="5.93874">
        <ele>560</ele>
        <time>2026-01-23T01:15:32Z</time>
      </trkpt>
      <trkpt lat="43.19436" lon="5.93845">
        <ele>565</ele>
        <time>2026-01-23T01:15:32Z</time>
      </trkpt>
      <trkpt lat="43.19443" lon="5.93812">
        <ele>566</ele>
        <time>2026-01-23T01:15:32Z</time>
      </trkpt>
      <trkpt lat="43.19506" lon="5.93818">
        <ele>575</ele>
        <time>2026-01-23T01:15:32Z</time>
      </trkpt>
      <trkpt lat="43.19546" lon="5.93808">
        <ele>582</ele>
        <time>2026-01-23T01:15:32Z</time>
      </trkpt>
      <trkpt lat="43.1959" lon="5.93817">
        <ele>590</ele>
        <time>2026-01-23T01:15:32Z</time>
      </trkpt>
      <trkpt lat="43.19644" lon="5.93809">
        <ele>600</ele>
        <time>2026-01-23T01:15:32Z</time>
      </trkpt>
      <trkpt lat="43.19675" lon="5.93792">
        <ele>604</ele>
        <time>2026-01-23T01:15:32Z</time>
      </trkpt>
      <trkpt lat="43.19705" lon="5.93811">
        <ele>608</ele>
        <time>2026-01-23T01:15:32Z</time>
      </trkpt>
      <trkpt lat="43.19746" lon="5.93811">
        <ele>613</ele>
        <time>2026-01-23T01:15:32Z</time>
      </trkpt>
      <trkpt lat="43.19797" lon="5.93882">
        <ele>626</ele>
        <time>2026-01-23T01:15:32Z</time>
      </trkpt>
      <trkpt lat="43.1984" lon="5.9389">
        <ele>635</ele>
        <time>2026-01-23T01:15:32Z</time>
      </trkpt>
      <trkpt lat="43.19876" lon="5.93913">
        <ele>643</ele>
        <time>2026-01-23T01:15:32Z</time>
      </trkpt>
      <trkpt lat="43.19894" lon="5.93953">
        <ele>648</ele>
        <time>2026-01-23T01:15:32Z</time>
      </trkpt>
      <trkpt lat="43.19909" lon="5.94012">
        <ele>655</ele>
        <time>2026-01-23T01:15:32Z</time>
      </trkpt>
      <trkpt lat="43.19938" lon="5.93962">
        <ele>657</ele>
        <time>2026-01-23T01:15:32Z</time>
      </trkpt>
      <trkpt lat="43.19961" lon="5.93888">
        <ele>657</ele>
        <time>2026-01-23T01:15:32Z</time>
      </trkpt>
      <trkpt lat="43.20006" lon="5.93808">
        <ele>660</ele>
        <time>2026-01-23T01:15:32Z</time>
      </trkpt>
      <trkpt lat="43.20053" lon="5.93773">
        <ele>663</ele>
        <time>2026-01-23T01:15:32Z</time>
      </trkpt>
      <trkpt lat="43.2008" lon="5.93742">
        <ele>663</ele>
        <time>2026-01-23T01:15:32Z</time>
      </trkpt>
      <trkpt lat="43.20126" lon="5.93697">
        <ele>665</ele>
        <time>2026-01-23T01:15:32Z</time>
      </trkpt>
      <trkpt lat="43.20141" lon="5.93641">
        <ele>664</ele>
        <time>2026-01-23T01:15:32Z</time>
      </trkpt>
      <trkpt lat="43.20168" lon="5.93588">
        <ele>665</ele>
        <time>2026-01-23T01:15:32Z</time>
      </trkpt>
      <trkpt lat="43.20187" lon="5.9351">
        <ele>665</ele>
        <time>2026-01-23T01:15:32Z</time>
      </trkpt>
      <trkpt lat="43.20229" lon="5.93469">
        <ele>667</ele>
        <time>2026-01-23T01:15:32Z</time>
      </trkpt>
      <trkpt lat="43.20288" lon="5.9338">
        <ele>667</ele>
        <time>2026-01-23T01:15:32Z</time>
      </trkpt>
      <trkpt lat="43.20386" lon="5.93412">
        <ele>674</ele>
        <time>2026-01-23T01:15:32Z</time>
      </trkpt>
      <trkpt lat="43.20487" lon="5.93407">
        <ele>680</ele>
        <time>2026-01-23T01:15:32Z</time>
      </trkpt>
      <trkpt lat="43.20578" lon="5.9339">
        <ele>683</ele>
        <time>2026-01-23T01:15:32Z</time>
      </trkpt>
      <trkpt lat="43.20644" lon="5.93349">
        <ele>687</ele>
        <time>2026-01-23T01:15:32Z</time>
      </trkpt>
      <trkpt lat="43.20692" lon="5.93324">
        <ele>684</ele>
        <time>2026-01-23T01:15:32Z</time>
      </trkpt>
      <trkpt lat="43.20723" lon="5.93267">
        <ele>684</ele>
        <time>2026-01-23T01:15:32Z</time>
      </trkpt>
      <trkpt lat="43.20831" lon="5.93182">
        <ele>680</ele>
        <time>2026-01-23T01:15:32Z</time>
      </trkpt>
      <trkpt lat="43.20896" lon="5.93143">
        <ele>681</ele>
        <time>2026-01-23T01:15:32Z</time>
      </trkpt>
      <trkpt lat="43.20974" lon="5.93122">
        <ele>680</ele>
        <time>2026-01-23T01:15:32Z</time>
      </trkpt>
      <trkpt lat="43.21026" lon="5.93085">
        <ele>678</ele>
        <time>2026-01-23T01:15:32Z</time>
      </trkpt>
      <trkpt lat="43.21049" lon="5.93104">
        <ele>674</ele>
        <time>2026-01-23T01:15:32Z</time>
      </trkpt>
      <trkpt lat="43.21106" lon="5.93057">
        <ele>674</ele>
        <time>2026-01-23T01:15:32Z</time>
      </trkpt>
      <trkpt lat="43.21165" lon="5.9298">
        <ele>673</ele>
        <time>2026-01-23T01:15:32Z</time>
      </trkpt>
      <trkpt lat="43.21231" lon="5.92888">
        <ele>670</ele>
        <time>2026-01-23T01:15:32Z</time>
      </trkpt>
      <trkpt lat="43.21283" lon="5.92786">
        <ele>670</ele>
        <time>2026-01-23T01:15:32Z</time>
      </trkpt>
      <trkpt lat="43.21299" lon="5.9267">
        <ele>672</ele>
        <time>2026-01-23T01:15:32Z</time>
      </trkpt>
      <trkpt lat="43.21332" lon="5.92628">
        <ele>669</ele>
        <time>2026-01-23T01:15:32Z</time>
      </trkpt>
      <trkpt lat="43.21351" lon="5.9256">
        <ele>666</ele>
        <time>2026-01-23T01:15:32Z</time>
      </trkpt>
      <trkpt lat="43.21381" lon="5.9252">
        <ele>660</ele>
        <time>2026-01-23T01:15:32Z</time>
      </trkpt>
      <trkpt lat="43.21435" lon="5.92489">
        <ele>654</ele>
        <time>2026-01-23T01:15:32Z</time>
      </trkpt>
      <trkpt lat="43.21455" lon="5.9245">
        <ele>651</ele>
        <time>2026-01-23T01:15:32Z</time>
      </trkpt>
      <trkpt lat="43.21488" lon="5.92454">
        <ele>649</ele>
        <time>2026-01-23T01:15:32Z</time>
      </trkpt>
      <trkpt lat="43.21529" lon="5.92397">
        <ele>647</ele>
        <time>2026-01-23T01:15:32Z</time>
      </trkpt>
      <trkpt lat="43.21633" lon="5.92307">
        <ele>645</ele>
        <time>2026-01-23T01:15:32Z</time>
      </trkpt>
      <trkpt lat="43.21674" lon="5.9231">
        <ele>645</ele>
        <time>2026-01-23T01:15:32Z</time>
      </trkpt>
      <trkpt lat="43.21695" lon="5.9237">
        <ele>644</ele>
        <time>2026-01-23T01:15:32Z</time>
      </trkpt>
      <trkpt lat="43.21788" lon="5.92485">
        <ele>639</ele>
        <time>2026-01-23T01:15:32Z</time>
      </trkpt>
      <trkpt lat="43.21827" lon="5.92483">
        <ele>638</ele>
        <time>2026-01-23T01:15:32Z</time>
      </trkpt>
      <trkpt lat="43.21955" lon="5.92542">
        <ele>636</ele>
        <time>2026-01-23T01:15:32Z</time>
      </trkpt>
      <trkpt lat="43.2201" lon="5.9253">
        <ele>636</ele>
        <time>2026-01-23T01:15:32Z</time>
      </trkpt>
      <trkpt lat="43.22041" lon="5.9252">
        <ele>636</ele>
        <time>2026-01-23T01:15:32Z</time>
      </trkpt>
      <trkpt lat="43.22068" lon="5.92557">
        <ele>634</ele>
        <time>2026-01-23T01:15:32Z</time>
      </trkpt>
      <trkpt lat="43.22093" lon="5.92507">
        <ele>634</ele>
        <time>2026-01-23T01:15:32Z</time>
      </trkpt>
      <trkpt lat="43.2215" lon="5.92457">
        <ele>634</ele>
        <time>2026-01-23T01:15:32Z</time>
      </trkpt>
      <trkpt lat="43.22192" lon="5.92432">
        <ele>634</ele>
        <time>2026-01-23T01:15:32Z</time>
      </trkpt>
      <trkpt lat="43.22223" lon="5.92403">
        <ele>634</ele>
        <time>2026-01-23T01:15:32Z</time>
      </trkpt>
      <trkpt lat="43.22257" lon="5.92389">
        <ele>633</ele>
        <time>2026-01-23T01:15:32Z</time>
      </trkpt>
      <trkpt lat="43.22314" lon="5.92292">
        <ele>630</ele>
        <time>2026-01-23T01:15:32Z</time>
      </trkpt>
      <trkpt lat="43.2235" lon="5.92248">
        <ele>629</ele>
        <time>2026-01-23T01:15:32Z</time>
      </trkpt>
      <trkpt lat="43.22387" lon="5.92215">
        <ele>630</ele>
        <time>2026-01-23T01:15:32Z</time>
      </trkpt>
      <trkpt lat="43.22475" lon="5.92175">
        <ele>633</ele>
        <time>2026-01-23T01:15:32Z</time>
      </trkpt>
      <trkpt lat="43.22501" lon="5.92128">
        <ele>633</ele>
        <time>2026-01-23T01:15:32Z</time>
      </trkpt>
      <trkpt lat="43.22549" lon="5.92105">
        <ele>635</ele>
        <time>2026-01-23T01:15:32Z</time>
      </trkpt>
      <trkpt lat="43.2266" lon="5.92096">
        <ele>631</ele>
        <time>2026-01-23T01:15:32Z</time>
      </trkpt>
      <trkpt lat="43.22722" lon="5.92103">
        <ele>629</ele>
        <time>2026-01-23T01:15:32Z</time>
      </trkpt>
    </trkseg>
  </trk>
</gpx>